www.pogodaiklimat.ru

Погода и климат >> Архив погоды >> Португалия >> Каштелу-Бранку


ПОГОДА в Каштелу-Бранку

  • Прогноз погоды в Каштелу-Бранку
  • Монитор погоды в Каштелу-Бранку

АРХИВ ПОГОДЫ в Каштелу-Бранку

Время (UTC), дата Ветер
(напр.,м/с)
 
Видим.   Явления Облачность Т
(С)
Тd
(С)
f
(%)
Тe
(С)
Тes
(С)
Комфортность P
(гПа)
Po
(гПа)
Тmin
(С)
Tmax
(С)
R
(мм)
R24
(мм)
S
(см)
18 14.05 З 4 20 км 9/3 600 м
[Cu Sc Ac trans Ci sp]
+18.4 +12.0 66 +19 +21 1022.1 1017.2 +19.6
09 15.05 ЮЗ 5 10 км 10/10 150 м
[Cu Sc]
+17.4 +17.0 97 +17 +17 1022.1 1017.2
12 15.05 З 6 8000 м слаб. морось 10/10 120 м
[Frnb]
+17.6 +17.2 98 +17 +17 1022.3 1017.4 0.0
15 15.05 З 6 3000 м слаб. морось 10/10 60 м
[Frnb]
+17.8 +16.9 94 +17 +17 1021.6 1016.7
18 15.05 СЗ 9 12 км {морось} 9/6 300 м
[Cu Sc Ac lent Ci sp]
+17.8 +14.6 82 +17 +17 1021.7 1016.8 +18.9 0.1
09 16.05 С 1 20 км 5/5 360 м
[Cu Sc Ci fib]
+15.4 +12.7 84 +16 +18 1024.9 1019.9
12 16.05 ЮЗ 3 20 км 6/6 420 м
[Cu Sc Ci fib]
+17.2 +12.8 75 +17 +23 1025.8 1020.9
15 16.05 З 3 20 км 6/4 420 м
[Cu Sc Ci fib]
+19.0 +12.3 65 +20 +29 1025.1 1020.2
18 16.05 Ю 3 20 км 5/3 420 м
[Cu Sc Ci fib]
+19.0 +12.3 65 +20 +24 1024.4 1019.5 +20.4
09 17.05 С 1 20 км 5/3 540 м
[Cu Sc Ci fib]
+16.0 +11.1 73 +17 +20 1026.2 1021.2
12 17.05 Ю 3 20 км 6/3 600 м
[Cu Sc Ci fib]
+17.8 +12.7 72 +18 +27 1026.5 1021.6
15 17.05 ЮЗ 4 20 км 6/3 600 м
[Cu Sc Ci fib]
+18.8 +11.7 63 +19 +28 1026.4 1021.5
18 17.05 ЮЗ 2 20 км 8/3 600 м
[Cu Sc Ci fib]
+19.4 +13.1 67 +21 +26 комфорт 1025.3 1020.3 +20.2
09 18.05 В 2 20 км {морось} 9/9 180 м
[Cu Sc]
+16.0 +14.4 90 +16 +16 1024.5 1019.5
12 18.05 З 7 9000 м слаб. морось 9/9 240 м
[Cu Sc]
+17.0 +15.4 90 +16 +16 1024.7 1019.8 0.2
15 18.05 В 3 15 км 9/8 300 м
[Cu Sc Ci fib]
+18.3 +16.3 88 +19 +22 1024.8 1019.9
18 18.05 З 6 20 км 6/6 420 м
[Cu Sc]
+19.4 +17.0 86 +21 +22 комфорт 1024.3 1019.4 +20.2 0.2
09 19.05 З 7 20 км 9/9 360 м
[Cu Sc]
+17.4 +13.1 76 +16 +17 1023.6 1018.6
12 19.05 З 7 20 км 9/9 420 м
[Cu Sc]
+19.0 +13.4 70 +19 +20 1023.5 1018.6
15 19.05 З 7 20 км 9/9 420 м
[Cu Sc]
+19.7 +16.2 80 +21 +22 комфорт 1022.9 1018.0
18 19.05 З 5 20 км 8/6 450 м
[Cu Sc Ci fib]
+19.5 +16.5 83 +21 +23 комфорт 1022.0 1017.1 +20.2
09 20.05 З 4 20 км 8/6 360 м
[Cu Sc Ci]
+18.2 +17.0 93 +18 +19 1018.3 1013.5
12 20.05 ЮЗ 4 15 км 9/8 210 м
[Cu Sc Cs]
+18.8 +17.7 93 +20 +22 1018.1 1013.3
15 20.05 ЮЗ 8 15 км в посл. час ливневой дождь 9/9 180 м
[Cu Sc]
+20.0 +17.2 84 +22 +23 комфорт 1017.0 1012.2
18 20.05 ЮЗ 5 15 км {ливн. осадки} 9/4 270 м
[Cu Sc Ac trans Ci sp]
+19.8 +17.3 86 +22 +24 комфорт 1015.8 1011.0 +20.4 0.6
09 21.05 З 4 15 км в посл. час дождь {ливн. осадки} 10/6 240 м
[Cu Sc Ac lent Cs]
+15.5 +14.5 94 +14 +15 1012.3 1007.4
12 21.05 ЮЗ 7 15 км в посл. час ливневой дождь 9/8 270 м
[Cu Sc Ac lent Ci sp]
+16.9 +15.2 90 +16 +16 1013.3 1008.4 2
15 21.05 З 9 15 км 4/3 700 м
[Cu Sc Ac cuf]
+19.2 +11.8 62 +19 +21 1013.8 1008.9

 

Местоположение метеостанции Каштелу-Бранку (Португалия): широта 38.52 долгота -28.71 высота над уровнем моря 41 м.

В архиве по умолчанию представлена погода в Каштелу-Бранку за последнюю неделю. Архивные данные за месяц целиком и за предыдущие месяцы, начиная с января 2011 года, Вы можете получить, выбрав интересующий диапазон дат из раскрывающегося списка и нажав кнопку "Ввод!".


*Определитесь, кто Вы:
робот инопланетянин человек

Внимание! Время в таблицах - всемирное. Для получения местного времени необходимо прибавить поправку, которая равна 0 ч.

Смотрите также архив погоды в соседних городах и на ближайших метеорологических станциях:

Погода в Орте (Португалия) (7 км)
Погода в Пико (Португалия) (24 км)
Погода в Сан-Жоржи (Португалия) (49 км)
Погода на Острове Грасьоса (Португалия) (86 км)
Погода в Ангра-ду-Эроижму (Португалия) (131 км)
Погода в Аэропорту Лажеша (Португалия) (143 км)
Погода на Флошише (Португалия) (233 км)
Погода в Понта-Делгаде (Португалия) (278 км)
Погода в Санта-Марии (Португалия) (357 км)
Погода в Фуншале (Португалия) (1252 км)

Пояснения к столбцам:

Ветер - указаны скорость ветра в м/с - средняя за 10 мин, порывы в срок и между сроками (в фигурных скобках) и направление, откуда дует ветер: С - северный, СВ - северо-восточный, В - восточный, ЮВ - юго-восточный, Ю - южный, ЮЗ - юго-западный, З - западный, СЗ - северо-западный.
Видимость - горизонтальная дальность видимости в метрах или километрах. При видимости от 1 до 10 км при отсутствии осадков обычно наблюдается дымка, при ухудшении видимости до 1 км и менее - туман. В сухую погоду видимость может ухудшаться дымом, пылью или мглою.
Явления - указаны атмосферные явления, наблюдавшиеся в срок или в последний час перед сроком; фигурными скобками обозначены явления, наблюдавшиеся между сроками (за 1-3 часа до срока); квадратными скобками обозначены град или гололедные отложения с указанием их диаметра в мм.
Облачность - указаны через наклонную черту общая и нижняя облачность в баллах и высота нижней границы облаков в метрах; квадратными скобками обозначены формы облаков: Ci - перистые, Cs - перисто-слоистые, Cc - перисто-кучевые, Ac - высококучевые, As - высокослоистые, Sc - слоисто-кучевые, Ns - слоисто-дождевые, Cu - кучевые, Cb - кучево-дождевые. Подробнее классификацию облаков см. в Атласе облаков (PDF).
T - Температура воздуха - температура, измеренная на высоте 2 м над землей.
Td - Температура точки росы - температура, при понижении до которой содержащийся в воздухе водяной пар достигнет насыщения.
f - Относительная влажность воздуха - влажноcть воздуха, измеренная на высоте 2 м над землей.
Te - Эффективная температура - температура, которую ощущает одетый по сезону человек в тени. Характеристика душности погоды. При расчете учитывается влияние влажности воздуха и скорости ветра на теплоощущения человека.
Tes - Эффективная температура на солнце - температура, которую ощущает человек, с поправкой на солнечный нагрев. Характеристика знойности погоды. Зависит от высоты солнца над горизонтом, облачности и скорости ветра. Ночью, в пасмурную погоду, а также при ветре 12 м/с и более поправка равна нулю.
P - Атмосферное давление - приведенное к уровню моря атмосферное давление.
Po - Атмосферное давление - измеренное на уровне метеостанции атмосферное давление.
Tmin - Минимальная температура - минимум температуры воздуха на высоте 2 м над землей.
Tmax - Максимальная температура - максимум температуры воздуха на высоте 2 м над землей.
R - Количество осадков - Количество выпавших осадков за период времени, мм. При наведении курсора мыши на число - период времени, за который выпало указанное количество осадков.
R24 - Количество осадков - Количество выпавших осадков за 24 часа, мм.
S - Снежный покров - Высота снежного покрова, см. При наведении курсора мыши на число - состояние снежного покрова и степень покрытия местности в баллах.